CONC1 YSCB-YSCB

Flight info

Callsign CONC1
Flight time 0h 2m
Altitude 1500
Route YSCB
Aircraft CONC/H-SDE2E3FGHIRWXY/LB1

Departure

Time 2026-05-06 09:35
Airport Canberra Airport (YSCB)

Arrival

Time 2026-05-06 09:37
Airport Canberra Airport (YSCB)
Time Latitude Longitude Altitude Speed Heading
2026-05-06 09:07 -35.30567 149.18937 1883 ft 0 kts 220°
2026-05-06 09:12 -35.30567 149.18938 1883 ft 0 kts 220°
2026-05-06 09:18 -35.30563 149.18942 1879 ft 2 kts 220°
2026-05-06 09:18 -35.30551 149.18954 1882 ft 2 kts 220°
2026-05-06 09:18 -35.30539 149.18967 1878 ft 2 kts 217°
2026-05-06 09:19 -35.30525 149.18979 1882 ft 2 kts 168°
2026-05-06 09:19 -35.30510 149.18971 1882 ft 2 kts 134°
2026-05-06 09:19 -35.30506 149.18968 1881 ft 0 kts 127°
2026-05-06 09:23 -35.30506 149.18967 1884 ft 0 kts 127°
2026-05-06 09:24 -35.30507 149.18968 1884 ft 1 kts 127°
2026-05-06 09:24 -35.30535 149.19013 1885 ft 7 kts 128°
2026-05-06 09:24 -35.30558 149.19047 1879 ft 4 kts 128°
2026-05-06 09:25 -35.30576 149.19075 1890 ft 14 kts 129°
2026-05-06 09:25 -35.30642 149.19173 1888 ft 14 kts 130°
2026-05-06 09:25 -35.30710 149.19232 1887 ft 11 kts 160°
2026-05-06 09:25 -35.30776 149.19239 1891 ft 11 kts 179°
2026-05-06 09:26 -35.30848 149.19238 1886 ft 11 kts 181°
2026-05-06 09:26 -35.30926 149.19239 1889 ft 12 kts 180°
2026-05-06 09:26 -35.31016 149.19239 1882 ft 13 kts 180°
2026-05-06 09:26 -35.31111 149.19239 1884 ft 15 kts 180°
2026-05-06 09:27 -35.31220 149.19239 1885 ft 16 kts 179°
2026-05-06 09:27 -35.31333 149.19240 1881 ft 18 kts 180°
2026-05-06 09:27 -35.31457 149.19239 1881 ft 17 kts 181°
2026-05-06 09:27 -35.31564 149.19239 1881 ft 16 kts 181°
2026-05-06 09:28 -35.31669 149.19239 1883 ft 14 kts 180°
2026-05-06 09:28 -35.31765 149.19239 1882 ft 13 kts 180°
2026-05-06 09:28 -35.31847 149.19239 1882 ft 10 kts 180°
2026-05-06 09:28 -35.31896 149.19239 1885 ft 4 kts 179°
2026-05-06 09:29 -35.31901 149.19239 1883 ft 0 kts 178°
2026-05-06 09:31 -35.31912 149.19241 1884 ft 1 kts 173°
2026-05-06 09:31 -35.31931 149.19246 1885 ft 8 kts 167°
2026-05-06 09:31 -35.31979 149.19282 1883 ft 8 kts 138°
2026-05-06 09:32 -35.31999 149.19314 1889 ft 0 kts 125°
2026-05-06 09:32 -35.32006 149.19348 1887 ft 12 kts 101°
2026-05-06 09:33 -35.31950 149.19440 1884 ft 16 kts 14°
2026-05-06 09:33 -35.31910 149.19444 1886 ft 0 kts
2026-05-06 09:34 -35.31822 149.19445 1885 ft 49 kts 360°
2026-05-06 09:34 -35.31105 149.19443 1885 ft 155 kts 360°
2026-05-06 09:34 -35.29742 149.19442 2081 ft 217 kts 359°
2026-05-06 09:35 -35.28194 149.19479 2781 ft 241 kts 17°
2026-05-06 09:35 -35.27245 149.21125 2576 ft 277 kts 104°
2026-05-06 09:35 -35.28450 149.22795 2711 ft 270 kts 171°
2026-05-06 09:35 -35.30207 149.23213 2707 ft 247 kts 175°
2026-05-06 09:36 -35.31856 149.23343 2874 ft 228 kts 186°
2026-05-06 09:36 -35.33275 149.22696 2788 ft 227 kts 232°
2026-05-06 09:36 -35.33874 149.20913 2910 ft 224 kts 274°
2026-05-06 09:36 -35.33247 149.19364 2459 ft 210 kts 341°
2026-05-06 09:37 -35.31775 149.19362 2077 ft 214 kts 10°
2026-05-06 09:37 -35.30370 149.19454 1888 ft 165 kts 358°
2026-05-06 09:37 -35.29510 149.19443 1889 ft 81 kts
2026-05-06 09:37 -35.29189 149.19443 1892 ft 23 kts
2026-05-06 09:38 -35.29072 149.19379 1882 ft 13 kts 291°
2026-05-06 09:38 -35.29079 149.19264 1887 ft 16 kts 249°
2026-05-06 09:38 -35.29172 149.19234 1888 ft 13 kts 180°
2026-05-06 09:38 -35.29205 149.19232 1891 ft 0 kts 181°
2026-05-06 09:40 -35.29299 149.19232 1884 ft 17 kts 179°
2026-05-06 09:41 -35.29412 149.19233 1890 ft 16 kts 180°
2026-05-06 09:41 -35.29521 149.19234 1889 ft 15 kts 179°
2026-05-06 09:41 -35.29629 149.19238 1881 ft 17 kts 178°
2026-05-06 09:41 -35.29755 149.19238 1885 ft 18 kts 180°
2026-05-06 09:42 -35.29898 149.19238 1884 ft 20 kts 180°
2026-05-06 09:42 -35.30023 149.19240 1884 ft 18 kts 179°
2026-05-06 09:42 -35.30139 149.19240 1883 ft 15 kts 179°
2026-05-06 09:42 -35.30251 149.19240 1879 ft 17 kts 180°
2026-05-06 09:43 -35.30350 149.19239 1886 ft 14 kts 180°
2026-05-06 09:43 -35.30454 149.19239 1884 ft 16 kts 180°
2026-05-06 09:43 -35.30557 149.19239 1890 ft 12 kts 179°
2026-05-06 09:43 -35.30641 149.19239 1892 ft 10 kts 180°
2026-05-06 09:44 -35.30670 149.19239 1890 ft 0 kts 180°
2026-05-06 09:44 -35.30698 149.19239 1893 ft 12 kts 180°
2026-05-06 09:44 -35.30746 149.19239 1891 ft 3 kts 180°
2026-05-06 09:45 -35.30762 149.19239 1887 ft 0 kts 180°
2026-05-06 09:46 -35.30763 149.19239 1887 ft 2 kts 180°
2026-05-06 09:46 -35.30815 149.19239 1893 ft 8 kts 180°
2026-05-06 09:46 -35.30887 149.19239 1888 ft 14 kts 180°
2026-05-06 09:46 -35.30997 149.19239 1886 ft 18 kts 180°
2026-05-06 09:47 -35.31129 149.19239 1880 ft 20 kts 180°
2026-05-06 09:47 -35.31255 149.19239 1884 ft 16 kts 180°
2026-05-06 09:47 -35.31360 149.19239 1880 ft 15 kts 180°
2026-05-06 09:47 -35.31456 149.19239 1881 ft 14 kts 180°
2026-05-06 09:48 -35.31623 149.19239 1877 ft 26 kts 180°
2026-05-06 09:48 -35.31787 149.19238 1880 ft 21 kts 180°
2026-05-06 09:48 -35.31921 149.19243 1885 ft 15 kts 170°
2026-05-06 09:48 -35.31954 149.19253 1884 ft 0 kts 161°
2026-05-06 09:49 -35.31955 149.19255 1881 ft 6 kts 155°
2026-05-06 09:49 -35.31993 149.19304 1881 ft 3 kts 121°
2026-05-06 09:49 -35.31996 149.19311 1880 ft 0 kts 118°
2026-05-06 09:50 -35.32006 149.19375 1883 ft 12 kts 92°
2026-05-06 09:50 -35.31963 149.19436 1887 ft 8 kts 17°
2026-05-06 09:50 -35.31935 149.19441 1885 ft 0 kts
2026-05-06 09:51 -35.31821 149.19442 1885 ft 58 kts
2026-05-06 09:52 -35.31032 149.19444 1888 ft 166 kts 360°
2026-05-06 09:52 -35.29563 149.19446 1947 ft 244 kts
2026-05-06 09:52 -35.28007 149.19764 2593 ft 222 kts 53°
2026-05-06 09:52 -35.28153 149.21693 2743 ft 299 kts 155°
2026-05-06 09:53 -35.30187 149.21986 2782 ft 288 kts 184°
2026-05-06 09:53 -35.32106 149.21857 2670 ft 264 kts 187°
2026-05-06 09:53 -35.33843 149.21564 2578 ft 242 kts 192°
2026-05-06 09:53 -35.35383 149.21234 2784 ft 207 kts 188°
2026-05-06 09:54 -35.36759 149.21460 3344 ft 212 kts 133°
2026-05-06 09:54 -35.36993 149.23180 3456 ft 235 kts 40°
2026-05-06 09:54 -35.35449 149.23350 3162 ft 258 kts 307°
2026-05-06 09:54 -35.35417 149.21364 2946 ft 276 kts 214°
2026-05-06 09:55 -35.37199 149.20584 3064 ft 255 kts 180°
2026-05-06 09:55 -35.38877 149.20482 3323 ft 225 kts 195°
2026-05-06 09:55 -35.40200 149.19755 3652 ft 227 kts 247°
2026-05-06 09:55 -35.40252 149.17903 3124 ft 257 kts 320°
2026-05-06 09:56 -35.38584 149.17655 2769 ft 262 kts 27°
2026-05-06 09:56 -35.37553 149.18478 2771 ft 264 kts 32°
2026-05-06 09:56 -35.35958 149.19248 2635 ft 230 kts 12°
2026-05-06 09:56 -35.34410 149.19486 2395 ft 222 kts 359°
2026-05-06 09:57 -35.32904 149.19445 2115 ft 213 kts 359°
2026-05-06 09:57 -35.31445 149.19446 1893 ft 203 kts
2026-05-06 09:57 -35.30014 149.19442 1888 ft 229 kts
2026-05-06 09:57 -35.28407 149.19425 2196 ft 217 kts 358°
2026-05-06 09:58 -35.27081 149.19748 2559 ft 184 kts 51°
2026-05-06 09:58 -35.26620 149.21182 2091 ft 214 kts 78°
2026-05-06 09:58 -35.27185 149.22718 2661 ft 224 kts 166°
2026-05-06 09:58 -35.28841 149.22788 2842 ft 242 kts 188°
2026-05-06 09:59 -35.30463 149.22479 2836 ft 227 kts 193°
2026-05-06 09:59 -35.31964 149.22101 2686 ft 214 kts 194°
2026-05-06 09:59 -35.33396 149.22265 2511 ft 242 kts 127°
2026-05-06 09:59 -35.33245 149.24189 2559 ft 278 kts 16°
2026-05-06 10:00 -35.31777 149.23223 2668 ft 278 kts 270°
2026-05-06 10:00 -35.32868 149.21757 2683 ft 262 kts 168°
2026-05-06 10:00 -35.34563 149.22451 2737 ft 246 kts 168°
2026-05-06 10:00 -35.35963 149.21670 3010 ft 262 kts 265°
2026-05-06 10:01 -35.35063 149.20093 2864 ft 237 kts 338°
2026-05-06 10:01 -35.33475 149.19532 2272 ft 238 kts 352°
2026-05-06 10:01 -35.31846 149.19454 1895 ft 229 kts 360°
2026-05-06 10:01 -35.30477 149.19444 1889 ft 145 kts 360°
2026-05-06 10:02 -35.29750 149.19443 1886 ft 57 kts
2026-05-06 10:02 -35.29586 149.19367 1889 ft 18 kts 287°
2026-05-06 10:02 -35.29616 149.19251 1887 ft 13 kts 212°
2026-05-06 10:02 -35.29690 149.19239 1882 ft 5 kts 181°
2026-05-06 10:03 -35.29838 149.19239 1884 ft 63 kts 180°
2026-05-06 10:03 -35.30284 149.19241 1882 ft 61 kts 180°
2026-05-06 10:03 -35.30623 149.19237 1885 ft 32 kts 187°
2026-05-06 10:03 -35.30631 149.19151 1887 ft 22 kts 313°
2026-05-06 10:04 -35.30610 149.19038 1883 ft 9 kts 220°